Regional Weather Roundup
Issued by NWS Albany, NY

Home | Current Version | Previous Version | Text Only | Print | Product List | Glossary On
Versions: 1 2 3 4 5 6 7 8 9 10 11 12 13 14 15 16 17 18 19 20 21 22 23 24 25 26 27
000
ASUS41 KALY 270510
RWRALY

NEW YORK STATE HOURLY WEATHER ROUNDUP
NATIONAL WEATHER SERVICE ALBANY NY
100 AM EDT FRI MAY 27 2016

NOTE: "FAIR" INDICATES FEW OR NO CLOUDS BELOW 12,000 FEET WITH NO
SIGNIFICANT WEATHER AND/OR NO OBSTRUCTIONS TO VISIBILITY.

NYZ032-033-038>043-046>054-057>066-NYZ062>081-082-084-270600-
EAST


CITY           SKY/WX    TMP DP  RH WIND       PRES   REMARKS
ALBANY         MOCLDY    75  54  47 S13       30.02R
GLENS FALLS    CLOUDY    66  60  81 CALM      30.01F
POUGHKEEPSIE   CLEAR     68  58  70 CALM      30.04R
NEWBURGH       CLEAR     70  54  56 S7        30.06S
MONTGOMERY     CLOUDY    67  58  72 CALM      30.05R
WHITE PLAINS   CLOUDY    65  55  70 CALM      30.06F
ISLIP          PTCLDY    64  58  80 S6        30.07F
NEW YORK CITY  CLOUDY    71  64  78 S3        30.04F
CENTRAL PARK   CLOUDY    76  52  43 VRB3      30.07F
$$

NYZ005>009-017-018-044>046-055-056-270600-
CENTRAL


CITY           SKY/WX    TMP DP  RH WIND       PRES   REMARKS
FULTON         FOG       62  59  90 CALM      29.97F VSB 3/4
SYRACUSE       MOCLDY    67  60  78 CALM      29.97F
ROME           CLOUDY    68  60  75 CALM      30.01S
ELMIRA         CLEAR     64  58  80 CALM      30.02S
BINGHAMTON     CLOUDY    70  56  61 S6        30.06F
MONTICELLO     CLOUDY    66  57  72 CALM      30.10S
$$

NYZ026>034-041>043-087-270600-
NORTH


CITY           SKY/WX    TMP DP  RH WIND       PRES   REMARKS
WATERTOWN      CLOUDY    59  57  93 CALM      29.96S FOG
FORT DRUM      NOT AVBL
MASSENA        CLEAR     62  54  74 CALM      29.96F
SARANAC LAKE   CLOUDY    57  52  83 CALM      30.03S
PLATTSBURGH    CLOUDY    63  56  78 CALM      29.97F
$$

NYZ001>004-010>016-019>021-085-270600-
WEST


CITY           SKY/WX    TMP DP  RH WIND       PRES   REMARKS
NIAGARA FALLS  CLOUDY    70  62  76 S3        29.97R
BUFFALO        MOCLDY    69  64  84 S6        29.99R
DUNKIRK        PTCLDY    70  63  78 SW9       30.00R
JAMESTOWN      CLEAR     66  61  82 S8        30.06R
WELLSVILLE     CLEAR     69  60  73 SW6       30.09R
ROCHESTER      CLOUDY    67  64  90 SW5       29.98S
PENN YAN       CLOUDY    67  61  81 SW8       30.01S
$$

             KEY
       WCI = WIND CHILL INDEX
       VSB = VISIBILITY
       HX  = HEAT INDEX
$$




USA.gov is the U.S. government's official web portal to all federal, state and local government web resources and services.